STARLINK-30282, 57883

Orbit data source: Space-Track

STARLINK-30282, 57883 is a payload satellite owned by SpaceX/Seattle (US) in LEO that was launched on Sat, 16 Sep 2023 UTC via an FALCON 9 launch vehicle from the Air Force Eastern Test Range (AFETR). Payload-class satellites include a variety of spacecraft equipped with specific instruments for various scientific and technological missions. These include communications satellites like Starlink; space stations such as the ISS; scientific satellites like the Hubble; Earth observation satellites from companies like Planet Labs, Umbra, and HawkEye 360; GPS; miniature CubeSats for education and research; and military/defense satellites.

Loading next visibility...
Identifier
57883, 2023-144V
Orbit
LEO
Country
Flag of USUS
Related business
Manufacturer
SpaceX/Seattle
Mission
Operational Commercial Communications
Bus & Motor
STARLINK V2M, Unknown motor
Mass
730 kg wet, ~700 kg dry
Launch date (UTC)
2023-09-16 (2 years ago)
Launch vehicle
FALCON 9
Launch site
Air Force Eastern Test Range (AFETR)
Object type
Payload
Rocket body
Debris
Shape & HBR
Box + 2 Pan, 17.7 m
Radar Cross Section
33.884 m², Large (>1 m²)

Expand to show TLE details & history
Last TLE update: 1 day ago

TLE from 1 day ago
0 STARLINK-30282
1 57883U 23144V   25348.39959578  .00003618  00000-0  28300-3 0  9996
2 57883  43.0080  30.6757 0002317 278.5397  81.5183 15.02503068124788
Epoch: 2025-12-14T09:35Z
TLE epoch observation values (Epoch: 2025-12-14T09:35:25.075Z)
Latitude
-0°
Longitude
163.50815°
Altitude
558.723 km
Speed
7.584 km/s
True Right ascension
02h 02m 42s
True Declination
0° 00' 00"
Sunlit
Object was in full shadow at epoch
Visualization orbit readout
Latitude
Unknown
Longitude
Unknown
Altitude
Unknown
Speed
Unknown
Apparent Right ascension
Unknown
Apparent Declination
Unknown
Sunlit
N/A
Visualization observer readout
Local Sidereal Time
13:19:52
Azimuth
Unknown
Elevation
Unknown
Doppler factor
Unknown
Orbital elements
Apogee altitude
562.711 km
Perigee altitude
559.496 km
Semi-major axis
6,939.24 km
Eccentricity
0.00023
Inclination
43.008°
RAAN
30.6757°
Arg. of periapsis
278.5397°
True anomaly
81.54456°
Mean anomaly
81.5183°
Eccentric anomaly
81.53143°
Mean motion
3.7547 °/min
Orbital period
95.88 mins
BSTAR
0.000283
Loading maneuver chart data...
Computing Atmospheric mass density...
Loading historical data...
Loading historical data...
Loading historical data...
Loading historical data...
Loading historical data...
Loading historical data...
Loading historical data...

Documentation

Showing up to 5 results
|